Location: Artiguedieu
(43.5000°N, 0.5454°E)
Time: 12:02:33
(UTC+00:00)

ALOS - Pass Details

Date: 06 December 2020
Orbit: 682 x 686 km, 97.9° (Epoch: 27 January)

Event Time Altitude Azimuth Distance (km) Brightness Sun altitude
Rises 04:53:39 0° 8° (N) 3,062 5.6 -25.1°
Reaches altitude 10° 04:55:56 10° 5° (N) 2,142 4.8 -24.7°
Enters shadow 04:56:57 17° 2° (N) 1,741 4.3 -24.5°
